Starlink 1672

operational
NORAD ID: 46537 Int'l Des: 2020-070 Owner: SPXS Country: US Constellation: starlink
LEOCIRCULARSTARLINK_TYPE

About Starlink 1672

Description loading...

Live Position

Loading 3D Globe...

Upcoming Passes

Altitude History

Altitude vs Time

uPlot chart will show altitude changes over time

Two-Line Element Set

1 46537U 20070F 25350.30826012 .00080324 00000-0 17509-2 0 9992
2 46537 53.0515 177.7187 0006681 151.2532 208.8843 15.43552613287122
Epoch: Dec 16, 2025 • Age: 19 hours

Current Status

Altitude 439.0 km
Velocity 7.66 km/s
Sub-Earth Point 52.32°N, 155.34°E
Launch Date Oct 6, 2020
Age 5.1 years
Type internet

Technical Details

Classification Payload
Mass 260.00 kg
Dry Mass 248.00 kg
Total Mass 260.00 kg
Length 0.20 m
Diameter 2.80 m
Span 9.00 m
Shape Box + pan
Manufacturer SPXS
Bus Type Starlink
Phase Status In Orbit
Owner/State SPXS/US

Large Constellations

Loading constellations...